STARLINK-5183, 54084

Orbit data source: Space-Track

STARLINK-5183, 54084 is a payload satellite owned by SpaceX/Seattle (US) in LEO that was launched on Thu, 20 Oct 2022 UTC via an FALCON 9 launch vehicle from the Air Force Eastern Test Range (AFETR). Payload-class satellites include a variety of spacecraft equipped with specific instruments for various scientific and technological missions. These include communications satellites like Starlink; space stations such as the ISS; scientific satellites like the Hubble; Earth observation satellites from companies like Planet Labs, Umbra, and HawkEye 360; GPS; miniature CubeSats for education and research; and military/defense satellites.

Loading next visibility...
Identifier
54084, 2022-136AK
Orbit
LEO
Country
Flag of USUS
Related business
Manufacturer
SpaceX/Seattle
Mission
Operational Commercial Communications
Bus & Motor
STARLINK, Unknown motor
Mass
305 kg wet, ~290 kg dry
Launch date (UTC)
2022-10-20 (3 years ago)
Launch vehicle
FALCON 9
Launch site
Air Force Eastern Test Range (AFETR)
Object type
Payload
Rocket body
Debris
Shape & HBR
Box + 1 Pan, 10.1 m
Radar Cross Section
13.562 m², Large (>1 m²)

Expand to show TLE details & history
Last TLE update: 19 hours ago

TLE from 19 hours ago
0 STARLINK-5183
1 54084U 22136AK  25347.32339582  .00003871  00000-0  26127-3 0  9991
2 54084  53.2183   1.9772 0001429  91.7701 268.3455 15.08826043173946
Epoch: 2025-12-13T07:45Z
TLE epoch observation values (Epoch: 2025-12-13T07:45:41.398Z)
Latitude
-0.00003°
Longitude
163.30237°
Altitude
540.712 km
Speed
7.593 km/s
True Right ascension
00h 07m 54s
True Declination
0° 00' 00"
Sunlit
Object was in daylight at epoch
Visualization orbit readout
Latitude
Unknown
Longitude
Unknown
Altitude
Unknown
Speed
Unknown
Apparent Right ascension
Unknown
Apparent Declination
Unknown
Sunlit
N/A
Visualization observer readout
Local Sidereal Time
01:30:24
Azimuth
Unknown
Elevation
Unknown
Doppler factor
Unknown
Orbital elements
Apogee altitude
541.019 km
Perigee altitude
539.042 km
Semi-major axis
6,918.168 km
Eccentricity
0.00014
Inclination
53.2183°
RAAN
1.9772°
Arg. of periapsis
91.7701°
True anomaly
268.32913°
Mean anomaly
268.3455°
Eccentric anomaly
268.33732°
Mean motion
3.77187 °/min
Orbital period
95.44 mins
BSTAR
0.00026127
Loading maneuver chart data...
Computing Atmospheric mass density...
Loading historical data...
Loading historical data...
Loading historical data...
Loading historical data...
Loading historical data...
Loading historical data...
Loading historical data...

Documentation

Showing up to 5 results
|